G3ZSS Weather Reports


Display with metric or nautical units.
time (UTC)temp
F
wind
direction
speed
MPH
gust
MPH
rain 1hr
in
rain 24hr
in
rain mn
in
humidity
%
barometer
mb
20260505125003 60 304 3.0 8.0 0.00 0.00 0.00 67 1011.7
20260505122003 60 304 3.0 9.0 0.00 0.00 0.00 70 1011.7
20260505121003 59 299 5.0 8.0 0.00 0.00 0.00 69 1011.7
20260505115004 59 314 4.0 10.0 0.00 0.00 0.00 69 1011.8
20260505114003 59 314 3.0 8.0 0.00 0.00 0.00 70 1011.8
20260505112004 58 306 5.0 12.0 0.00 0.00 0.00 70 1012.0
20260505111004 58 315 5.0 12.0 0.00 0.00 0.00 71 1012.0
20260505102004 59 296 3.0 8.0 0.00 0.00 0.00 70 1012.1
20260505101004 58 326 5.0 9.0 0.00 0.00 0.00 71 1012.2
20260505100003 58 317 4.0 10.0 0.00 0.00 0.00 70 1012.2
20260505095004 58 316 4.0 10.0 0.00 0.00 0.00 70 1012.2
20260505094003 59 298 2.0 12.0 0.00 0.00 0.00 70 1012.2
20260505093003 59 275 3.0 10.0 0.00 0.00 0.00 71 1012.1
20260505092004 59 320 3.0 9.0 0.00 0.00 0.00 70 1012.2
20260505091004 59 306 4.0 10.0 0.00 0.00 0.00 71 1012.2
20260505090004 58 304 3.0 9.0 0.00 0.00 0.00 72 1012.2
20260505085004 58 285 2.0 12.0 0.00 0.00 0.00 74 1012.4
20260505083004 58 314 5.0 10.0 0.00 0.00 0.00 72 1012.4
20260505082004 58 319 4.0 9.0 0.00 0.00 0.00 73 1012.3
20260505081003 58 294 2.0 7.0 0.00 0.00 0.00 75 1012.3
20260505080004 57 276 2.0 12.0 0.00 0.00 0.00 76 1012.3
20260505075003 57 315 2.0 8.0 0.00 0.00 0.00 78 1012.2
20260505074003 57 328 1.0 3.0 0.00 0.00 0.00 81 1012.2
20260505073004 56 314 1.0 5.0 0.00 0.00 0.00 84 1012.3
20260505072003 56 312 3.0 7.0 0.00 0.00 0.00 84 1012.3
20260505071004 56 295 2.0 6.0 0.00 0.00 0.00 88 1012.3
20260505070004 54 324 2.0 6.0 0.00 0.00 0.00 90 1012.4
20260505064004 53 306 1.0 3.0 0.00 0.00 0.00 91 1012.6
20260505063004 53 323 1.0 3.0 0.00 0.00 0.00 91 1012.8
20260505062004 52 327 0.0 2.0 0.00 0.00 0.00 91 1012.6
20260505061003 52 322 1.0 5.0 0.00 0.00 0.00 91 1012.7
20260505060004 52 321 2.0 5.0 0.00 0.00 0.00 91 1012.5
20260505054003 52 327 0.0 1.0 0.00 0.00 0.00 91 1012.7
20260505053004 51 327 0.0 0.0 0.00 0.00 0.00 91 1012.6
20260505051004 51 327 0.0 0.0 0.00 0.00 0.00 91 1012.5
20260505041004 52 317 2.0 3.0 0.00 0.00 0.00 91 1012.6
20260505035003 53 294 1.0 3.0 0.00 0.00 0.00 91 1012.7
20260505034004 53 294 1.0 2.0 0.00 0.00 0.00 91 1012.8
20260505033003 53 294 1.0 2.0 0.00 0.00 0.00 91 1012.9
20260505032004 53 294 1.0 2.0 0.00 0.00 0.00 91 1012.9
20260505031004 53 294 0.0 1.0 0.00 0.00 0.00 91 1013.0
20260505025004 53 294 0.0 1.0 0.00 0.00 0.00 91 1012.9
20260505024004 53 294 1.0 1.0 0.00 0.00 0.00 90 1012.8
20260505023003 53 294 0.0 1.0 0.00 0.00 0.00 91 1012.8
20260505022004 53 294 0.0 1.0 0.00 0.00 0.00 91 1012.8
20260505021004 53 294 1.0 2.0 0.00 0.00 0.00 91 1012.9
20260505020004 53 295 1.0 3.0 0.00 0.00 0.00 91 1013.0
20260505015003 53 291 0.0 1.0 0.00 0.00 0.00 90 1013.1
20260505014004 54 291 0.0 1.0 0.00 0.00 0.00 90 1013.2
20260505013003 54 291 0.0 0.0 0.00 0.00 0.00 90 1013.2
20260505012004 54 291 0.0 1.0 0.00 0.00 0.00 90 1013.2
20260505011003 54 291 0.0 1.0 0.00 0.00 0.00 90 1013.4
20260505010003 54 291 0.0 3.0 0.00 0.00 0.00 90 1013.2
20260505004004 55 291 0.0 1.0 0.00 0.00 0.00 90 1013.6
20260505003004 55 291 0.0 2.0 0.00 0.00 0.00 90 1013.6
20260505002004 55 290 1.0 2.0 0.00 0.00 0.00 90 1013.4
20260505001004 55 219 0.0 1.0 0.00 0.00 0.00 90 1013.6
20260505000004 55 219 0.0 0.0 0.00 0.00 0.00 90 1013.8
20260504235003 55 219 0.0 0.0 0.00 0.00 0.00 90 1013.7
20260504233004 55 219 0.0 0.0 0.00 0.00 0.00 90 1013.7
20260504232003 55 219 0.0 0.0 0.00 0.00 0.00 90 1013.7
20260504231004 55 219 0.0 1.0 0.00 0.00 0.00 90 1013.7
20260504230003 55 219 0.0 0.0 0.00 0.00 0.00 90 1013.7
20260504225003 56 219 0.0 0.0 0.00 0.00 0.00 90 1013.7
20260504223004 56 219 0.0 0.0 0.00 0.00 0.00 90 1013.8
20260504222003 56 219 0.0 0.0 0.00 0.00 0.00 90 1013.9
20260504221003 56 219 0.0 0.0 0.00 0.00 0.00 90 1013.9
20260504220004 56 219 0.0 1.0 0.00 0.00 0.00 90 1013.9
20260504215003 56 219 0.0 0.0 0.00 0.00 0.00 90 1014.0
20260504214003 56 219 0.0 1.0 0.00 0.00 0.00 90 1014.1
20260504211003 56 219 0.0 1.0 0.00 0.00 0.00 89 1013.9
20260504210004 56 219 0.0 0.0 0.00 0.00 0.00 88 1013.9
20260504205004 56 219 0.0 1.0 0.00 0.00 0.00 88 1013.9
20260504203004 56 219 0.0 0.0 0.00 0.00 0.00 87 1013.9
20260504202003 57 219 0.0 0.0 0.00 0.00 0.00 87 1013.9
20260504201003 57 219 0.0 0.0 0.00 0.00 0.00 87 1013.9
20260504200004 57 219 0.0 2.0 0.00 0.00 0.00 86 1013.8
20260504194004 58 219 0.0 2.0 0.00 0.00 0.00 85 1013.7
20260504192004 58 219 0.0 0.0 0.00 0.00 0.00 85 1013.5
20260504191003 58 219 0.0 1.0 0.00 0.00 0.00 85 1013.5
20260504190003 58 219 1.0 3.0 0.00 0.00 0.00 85 1013.4
20260504185004 59 219 0.0 3.0 0.00 0.00 0.00 84 1013.4
20260504184004 59 219 1.0 3.0 0.00 0.00 0.00 84 1013.3
20260504183003 60 219 1.0 2.0 0.00 0.00 0.00 84 1013.3
20260504182004 60 219 0.0 3.0 0.00 0.00 0.00 84 1013.2
20260504181004 61 219 1.0 3.0 0.00 0.00 0.00 82 1013.2
20260504180003 61 219 0.0 2.0 0.00 0.00 0.00 82 1013.1
20260504175004 62 219 0.0 2.0 0.00 0.00 0.00 80 1013.1
20260504174003 62 219 1.0 1.0 0.00 0.00 0.00 80 1013.1
20260504173003 62 219 1.0 3.0 0.00 0.00 0.00 81 1013.1
20260504172004 62 219 1.0 2.0 0.00 0.00 0.00 81 1013.1
20260504171004 61 219 1.0 3.0 0.00 0.00 0.00 81 1013.0
20260504151003 61 219 2.0 3.0 0.00 0.00 0.00 82 1013.2